Voltar ao catálogo

FENGYUN 1C DEB

AtivoPO
NORAD 30658·DEBRIS·🇨🇳 China

Lançado May 10, 1999 de Taiyuan Satellite Launch Center

Loading…

Próximas Passagens (próximas 24 horas)

TLE

AtualizadoSource: Space-Track

Época: Sep 13, 2026, 11:21 UTC

1 30658U 99025APQ 26256.47297220  .00001370  00000-0  10333-2 0  9994
2 30658  98.4219 267.4194 0180628 190.4211 169.3184 13.88281091984951

Acompanhe FENGYUN 1C DEB em tempo real com AllMySat

Download on the App Store